Date String (YYYY-MM-DD hh:mm:ss) UTC,Instrument flags,Ambient pressure (hPa),Sample flow (lpm),Bypass flow (lpm),Sample temperature (°C),Ambient temperature (°C),ASC tube jacket temperature (°C),LED temperature (°C),Box temperature (°C),Sample RH (%),Span deviation,Mass concentration (μg/m³),Mass concentration (μg/m³),Mass concentration (μg/m³)
DateTimeUTC,F1_M11,P_M11,Q1_M11,Q2_M11,T1_M11,T2_M11,T3_M11,T4_M11,T5_M11,U1_M11,ZSPAN_M11,X2_M11,X0_M11,X1_M11
2021-09-29 00:00:00,,0817.5,5.00,0.00,29.2,27.7,00.0,38.2,31.0,17.4,0002.5,0005.57,0013.41,0005.19
2021-09-29 00:01:00,,0817.5,5.01,0.00,29.2,28.0,00.0,38.2,31.1,17.3,0002.5,0005.67,0013.17,0005.22
2021-09-29 00:02:00,,0817.5,5.01,0.00,29.3,28.2,00.0,38.3,31.1,17.3,0002.5,0005.70,0011.80,0005.23
2021-09-29 00:03:00,,0817.5,4.99,0.00,29.3,28.4,00.0,38.3,31.2,17.3,0002.4,0005.70,0011.41,0005.23
2021-09-29 00:04:00,,0817.5,4.99,0.00,29.4,28.5,00.0,38.3,31.3,17.3,0002.4,0005.72,0011.80,0005.24
2021-09-29 00:05:00,,0817.5,5.00,0.00,29.4,28.6,00.0,38.3,31.3,17.3,0002.5,0005.75,0011.50,0005.22
2021-09-29 00:06:00,,0817.5,5.00,0.00,29.5,28.7,00.0,38.4,31.4,17.2,0002.3,0005.77,0012.02,0005.23
2021-09-29 00:07:00,,0817.5,5.01,0.00,29.5,28.6,00.0,38.4,31.4,17.0,0002.1,0005.78,0012.98,0005.23
2021-09-29 00:08:00,,0817.5,5.00,0.00,29.4,26.6,00.0,38.4,30.8,17.1,0002.0,0005.80,0012.84,0005.25
2021-09-29 00:09:00,,0817.5,4.99,0.00,29.2,25.3,00.0,38.4,30.4,17.3,0001.7,0005.79,0012.79,0005.26
2021-09-29 00:10:00,,0817.5,5.02,0.00,29.1,25.5,00.0,38.3,30.5,17.4,0001.7,0005.77,0012.68,0005.25
2021-09-29 00:11:00,,0817.5,4.99,0.00,29.1,26.0,00.0,38.3,30.6,17.5,0001.9,0005.73,0012.44,0005.22
2021-09-29 00:12:00,,0817.5,5.00,0.00,29.1,26.5,00.0,38.3,30.7,17.6,0002.0,0005.61,0012.13,0005.19
2021-09-29 00:13:00,,0817.5,5.01,0.00,29.1,26.9,00.0,38.2,30.8,17.6,0001.8,0005.54,0011.66,0005.17
2021-09-29 00:14:00,,0817.6,5.00,0.00,29.1,27.3,00.0,38.2,30.9,17.5,0001.9,0005.52,0011.06,0005.17
2021-09-29 00:15:00,,0817.6,5.01,0.00,29.2,27.7,00.0,38.2,31.0,17.6,0001.9,0005.50,0010.69,0005.15
2021-09-29 00:16:00,,0817.5,4.99,0.00,29.2,27.9,00.0,38.2,31.1,17.5,0001.8,0005.48,0010.60,0005.14
2021-09-29 00:17:00,,0817.6,5.00,0.00,29.2,28.1,00.0,38.2,31.1,17.5,0001.9,0005.44,0009.99,0005.12
2021-09-29 00:18:00,,0817.6,5.00,0.00,29.3,28.3,00.0,38.3,31.2,17.5,0002.0,0005.44,0009.46,0005.12
2021-09-29 00:19:00,,0817.6,5.01,0.00,29.3,28.5,00.0,38.3,31.2,17.4,0001.7,0005.41,0009.77,0005.09
2021-09-29 00:20:00,,0817.6,4.99,0.00,29.4,28.6,00.0,38.3,31.3,17.4,0001.7,0005.40,0010.30,0005.08
2021-09-29 00:21:00,,0817.6,4.99,0.00,29.4,28.7,00.0,38.3,31.4,17.4,0001.8,0005.40,0010.93,0005.07
2021-09-29 00:22:00,,0817.6,5.02,0.00,29.5,28.8,00.0,38.4,31.4,17.7,0001.7,0005.44,0011.75,0005.07
2021-09-29 00:23:00,,0817.6,4.99,0.00,29.5,28.6,00.0,38.4,31.4,18.0,0001.8,0005.49,0012.09,0005.06
2021-09-29 00:24:00,,0817.6,5.01,0.00,29.5,26.9,00.0,38.4,31.0,18.0,0002.1,0005.56,0013.35,0005.05
2021-09-29 00:25:00,,0817.6,5.00,0.00,29.3,26.3,00.0,38.4,30.8,18.2,0002.2,0005.57,0015.38,0005.02
2021-09-29 00:26:00,,0817.6,5.00,0.00,29.3,26.6,00.0,38.4,30.9,18.3,0002.2,0005.62,0016.57,0005.01
2021-09-29 00:27:00,,0817.6,5.00,0.00,29.3,27.0,00.0,38.4,30.9,18.3,0002.2,0005.66,0016.85,0005.00
2021-09-29 00:28:00,,0817.7,5.01,0.00,29.3,27.3,00.0,38.3,31.0,18.5,0002.2,0005.70,0018.56,0004.98
2021-09-29 00:29:00,,0817.6,5.00,0.00,29.3,27.7,00.0,38.3,31.1,18.6,0002.1,0005.75,0019.45,0004.96
2021-09-29 00:30:00,,0817.6,4.99,0.00,29.3,28.0,00.0,38.4,31.2,18.4,0002.2,0005.81,0019.61,0004.94
2021-09-29 00:31:00,,0817.6,5.01,0.00,29.4,28.2,00.0,38.4,31.2,18.4,0002.3,0005.89,0019.61,0004.93
2021-09-29 00:32:00,,0817.7,4.99,0.00,29.4,28.3,00.0,38.4,31.3,18.4,0002.2,0005.93,0019.53,0004.91
2021-09-29 00:33:00,,0817.7,5.01,0.00,29.5,28.5,00.0,38.4,31.4,18.3,0002.1,0005.97,0019.81,0004.90
2021-09-29 00:34:00,,0817.7,4.99,0.00,29.5,28.6,00.0,38.4,31.4,18.3,0002.1,0005.90,0019.57,0004.90
2021-09-29 00:35:00,,0817.7,4.99,0.00,29.6,28.7,00.0,38.5,31.4,18.2,0001.8,0005.87,0019.22,0004.88
2021-09-29 00:36:00,,0817.7,5.01,0.00,29.6,28.8,00.0,38.5,31.5,18.1,0001.7,0005.84,0017.86,0004.87
2021-09-29 00:37:00,,0817.7,5.00,0.00,29.6,27.5,00.0,38.5,31.2,18.1,0001.5,0005.82,0017.32,0004.86
2021-09-29 00:38:00,,0817.7,5.01,0.00,29.5,26.3,00.0,38.5,30.9,18.2,0001.5,0005.80,0017.30,0004.87
2021-09-29 00:39:00,,0817.7,5.01,0.00,29.4,26.5,00.0,38.5,30.9,18.2,0001.3,0005.76,0015.90,0004.87
2021-09-29 00:40:00,,0817.7,4.99,0.00,29.3,26.8,00.0,38.5,30.9,18.2,0001.2,0005.72,0014.76,0004.89
2021-09-29 00:41:00,,0817.7,4.99,0.00,29.3,27.2,00.0,38.4,31.0,18.6,0001.4,0005.70,0014.37,0004.89
2021-09-29 00:42:00,,0817.7,5.02,0.00,29.4,27.6,00.0,38.4,31.1,18.9,0001.4,0005.65,0014.42,0004.89
2021-09-29 00:43:00,,0817.7,4.99,0.00,29.4,27.9,00.0,38.4,31.2,18.9,0001.5,0005.64,0015.61,0004.89
2021-09-29 00:44:00,,0817.7,5.01,0.00,29.4,28.1,00.0,38.4,31.2,19.0,0001.8,0005.59,0015.22,0004.87
2021-09-29 00:45:00,,0817.8,5.00,0.00,29.5,28.3,00.0,38.5,31.3,19.0,0001.8,0005.63,0015.41,0004.86
2021-09-29 00:46:00,,0817.8,4.99,0.00,29.5,28.5,00.0,38.5,31.4,19.1,0001.9,0005.65,0015.07,0004.85
2021-09-29 00:47:00,,0817.8,5.01,0.00,29.6,28.6,00.0,38.5,31.4,19.1,0001.7,0005.67,0014.56,0004.84
2021-09-29 00:48:00,,0817.8,5.00,0.00,29.6,28.7,00.0,38.5,31.5,19.1,0001.8,0005.65,0014.39,0004.82
2021-09-29 00:49:00,,0817.8,4.99,0.00,29.6,28.7,00.0,38.5,31.5,18.9,0002.0,0005.64,0014.30,0004.79
2021-09-29 00:50:00,,0817.8,5.00,0.00,29.6,27.1,00.0,38.5,31.1,18.8,0002.1,0005.65,0014.93,0004.76
2021-09-29 00:51:00,,0817.8,5.00,0.00,29.4,26.3,00.0,38.5,30.9,18.7,0002.2,0005.63,0016.21,0004.74
2021-09-29 00:52:00,,0817.8,5.00,0.00,29.4,26.5,00.0,38.5,30.9,18.8,0002.1,0005.64,0016.04,0004.74
2021-09-29 00:53:00,,0817.8,5.00,0.00,29.3,26.9,00.0,38.5,31.0,18.7,0002.1,0005.59,0015.67,0004.72
2021-09-29 00:54:00,,0817.8,5.00,0.00,29.3,27.3,00.0,38.5,31.0,18.6,0002.1,0005.54,0014.17,0004.71
2021-09-29 00:55:00,,0817.8,5.00,0.00,29.3,27.6,00.0,38.4,31.1,18.5,0001.8,0005.50,0014.04,0004.72
2021-09-29 00:56:00,,0817.8,5.00,0.00,29.4,27.9,00.0,38.5,31.2,18.5,0001.6,0005.44,0013.55,0004.71
2021-09-29 00:57:00,,0817.8,5.00,0.00,29.4,28.2,00.0,38.5,31.2,18.4,0001.4,0005.38,0013.90,0004.71
2021-09-29 00:58:00,,0817.9,5.01,0.00,29.5,28.4,00.0,38.5,31.3,18.3,0001.2,0005.33,0015.55,0004.70
2021-09-29 00:59:00,,0817.9,4.99,0.00,29.5,28.5,00.0,38.5,31.4,18.4,0001.3,0005.31,0015.71,0004.70
